GW2097 Weather Reports


time (UTC)temp
F
wind
direction
speed
knots
gust
knots
rain 1hr
in
rain 24hr
in
rain mn
in
humidity
%
barometer
mb
20260504090106 42 0 0.0 0.0 0.00 0.00 0.00 63 1010.5
20260504081539 44 0 0.0 0.0 0.00 0.00 0.00 59 1010.4
20260504044557 45 0 0.0 0.0 0.00 0.00 0.00 55 1010.4
20260504043040 45 0 0.0 0.0 0.00 0.00 0.00 56 1010.6
20260504041539 46 0 0.0 0.0 0.00 0.00 0.00 55 1010.5
20260504040053 47 0 0.0 0.0 0.00 0.00 0.00 53 1010.5
20260504034553 47 0 0.0 0.0 0.00 0.00 0.00 50 1010.4
20260504033052 47 0 0.0 0.0 0.00 0.00 0.00 52 1010.7
20260504031541 48 0 0.0 0.0 0.00 0.00 0.00 52 1010.7
20260504030038 47 0 0.0 0.0 0.00 0.00 0.00 52 1010.6
20260504024548 47 0 0.0 0.0 0.00 0.00 0.00 54 1010.6
20260504023043 46 0 0.0 0.0 0.00 0.00 0.00 55 1010.6
20260504021540 46 0 0.0 0.0 0.00 0.00 0.00 55 1011.0
20260504020040 46 0 0.0 0.0 0.00 0.00 0.00 54 1010.8
20260504014551 47 0 0.0 0.0 0.00 0.00 0.00 54 1010.6
20260504013050 47 0 0.0 0.0 0.00 0.00 0.00 53 1010.4
20260504011545 48 0 0.0 0.0 0.00 0.00 0.00 51 1010.4
20260504010052 49 0 0.0 0.0 0.00 0.00 0.00 48 1010.3
20260504004548 49 0 0.0 0.0 0.00 0.00 0.00 47 1010.2
20260504003046 49 0 0.0 0.0 0.00 0.00 0.00 48 1010.0
20260504001605 49 0 0.0 0.0 0.00 0.00 0.00 48 1009.9
20260504000044 49 0 0.0 0.0 0.00 0.00 0.00 47 1009.9
20260503234539 49 0 0.0 0.0 0.00 0.00 0.00 47 1009.6
20260503233046 49 0 0.0 0.0 0.00 0.00 0.00 47 1009.6
20260503231546 49 0 0.0 0.0 0.00 0.00 0.00 49 1009.7
20260503230044 50 0 0.0 0.0 0.00 0.00 0.00 49 1009.7
20260503224542 50 0 0.0 0.0 0.00 0.00 0.00 48 1009.7
20260503223048 51 0 0.0 0.0 0.00 0.00 0.00 46 1009.8
20260503221545 51 0 0.0 0.0 0.00 0.00 0.00 46 1009.7
20260503220103 52 0 0.0 0.0 0.00 0.00 0.00 45 1009.9
20260503214545 51 0 0.0 0.0 0.00 0.00 0.00 47 1009.9
20260503213041 51 0 0.0 0.0 0.00 0.00 0.00 47 1009.7
20260503211557 51 0 0.0 0.0 0.00 0.00 0.00 47 1009.7
20260503210049 52 0 0.0 0.0 0.00 0.00 0.00 43 1009.7
20260503204547 52 0 0.0 0.0 0.00 0.00 0.00 41 1009.6
20260503203049 52 0 0.0 0.0 0.00 0.00 0.00 38 1009.3
20260503201546 53 0 0.0 0.0 0.00 0.00 0.00 37 1009.5
20260503200046 53 0 0.0 0.0 0.00 0.00 0.00 38 1009.4
20260503194548 51 0 0.0 0.0 0.00 0.00 0.00 38 1009.7
20260503193049 51 0 0.0 0.0 0.00 0.00 0.00 36 1009.8
20260503191539 51 0 0.0 0.0 0.00 0.00 0.00 39 1010.1
20260503190039 51 0 0.0 0.0 0.00 0.00 0.00 37 1010.2
20260503184538 51 0 0.0 0.0 0.00 0.00 0.00 36 1010.2
20260503183050 52 0 0.0 0.0 0.00 0.00 0.00 36 1010.4
20260503181614 51 0 0.0 0.0 0.00 0.00 0.00 36 1010.4
20260503180059 51 0 0.0 0.0 0.00 0.00 0.00 39 1010.8
20260503174551 49 0 0.0 0.0 0.00 0.00 0.00 39 1011.0
20260503173053 48 0 0.0 0.0 0.00 0.00 0.00 39 1011.1
20260503171549 48 0 0.0 0.0 0.00 0.00 0.00 38 1011.2